Weather History for 71799 - November, 2012

Change the Weather History Date:

Friday, November 2, 2012

  Actual Average Record
Temperature  
Mean Temperature 52 °F -  
Max Temperature 55 °F 49 °F - ()
Min Temperature 50 °F 36 °F - ()
Degree Days  
Heating Degree Days 12    
Growing Degree Days 2 (Base 50)    
Moisture  
Dew Point 50 °F    
Average Humidity 92    
Maximum Humidity 100    
Minimum Humidity 82    
Precipitation  
Precipitation 0.12 in 0.18 in - ()
Sea Level Pressure  
Sea Level Pressure 29.98 in    
Wind  
Wind Speed 2 mph ()    
Max Wind Speed 15 mph    
Max Gust Speed 20 mph    
Visibility 11.7 miles    
Events Rain    
T = Trace of Precipitation, MM = Missing Value Source: Averaged Metar Reports

Daily Weather History Graph

Daily Weather History Graph

Search for Another Location

Airport or City:

Trip Planner

Search our weather history database for the weather conditions in past years. The results will help you decide how hot, cold, wet, or windy it might be!

Date:

Astronomy

Nov. 02, 2012 Rise Set
Actual Time 8:02 AM PDT 5:51 PM PDT
Civil Twilight 7:29 AM PDT 6:24 PM PDT
Nautical Twilight 6:52 AM PDT 7:01 PM PDT
Astronomical Twilight 6:15 AM PDT 7:37 PM PDT
Moon 8:33 PM PDT (11/2) 11:38 AM PDT (11/2)
Length of Visible Light 10h 54m
Length of Day
9h 48m
Waning Gibbous, 86% of the Moon is Illuminated
Nov 2
Waning Gibbous
Nov 6
Last Quarter
Nov 13
New
Nov 20
First Quarter
Nov 28
Full

Hourly Weather History & Observations

Time (PDT) Temp. Dew Point Humidity Pressure Visibility Wind Dir Wind Speed Gust Speed Precip Events Conditions
12:00 AM 50.0 °F 50.0 °F 100% 29.99 in 5.0 mi Calm Calm - N/A   Mostly Cloudy
12:42 AM 50.0 °F - N/A% - 5.0 mi Calm Calm - N/A   Overcast
1:00 AM 50.0 °F 50.0 °F 100% 30.00 in 4.0 mi Calm Calm - N/A   Overcast
1:26 AM 51.8 °F - N/A% - 4.0 mi Calm Calm - N/A   Light Drizzle
2:00 AM 51.8 °F 50.0 °F 94% 30.00 in 4.0 mi NE 3.5 mph - N/A   Light Drizzle
3:00 AM 51.8 °F 50.0 °F 94% 30.01 in 5.0 mi Calm Calm - N/A   Light Drizzle
3:27 AM 51.8 °F - N/A% - 5.0 mi Calm Calm - N/A   Overcast
4:00 AM 51.8 °F 50.0 °F 94% 30.01 in 5.0 mi Calm Calm - N/A   Overcast
4:49 AM 51.8 °F - N/A% - 2.0 mi WNW 2.3 mph - N/A   Overcast
5:00 AM 51 °F 50 °F 96% 30.01 in 1 mi Calm Calm - -   Mist
5:00 AM 51.8 °F 50.0 °F 94% 30.01 in 1.5 mi Calm Calm - N/A   Overcast
5:26 AM 51.8 °F - N/A% - 2.5 mi Calm Calm - N/A   Overcast
5:41 AM 51.8 °F - N/A% - 3.0 mi Calm Calm - N/A   Overcast
6:00 AM 51.8 °F 50.0 °F 94% 30.00 in 5.0 mi ENE 2.3 mph - N/A   Overcast
7:00 AM 51.8 °F 50.0 °F 94% 30.00 in 10.0 mi Calm Calm - N/A   Overcast
8:00 AM 51.8 °F 50.0 °F 94% 30.00 in 15.0 mi Calm Calm - N/A   Overcast
9:00 AM 51.8 °F 50.0 °F 94% 30.00 in 15.0 mi North 2.3 mph - N/A   Overcast
9:33 AM 51.8 °F - N/A% - 15.0 mi NNW 3.5 mph - N/A   Overcast
10:00 AM 51.8 °F 50.0 °F 94% 30.01 in 20.0 mi NW 2.3 mph - N/A   Overcast
11:00 AM 53 °F 51 °F 89% 30.00 in 15 mi North 5.8 mph - -   Overcast
11:00 AM 51.8 °F 50.0 °F 94% 30.00 in 15.0 mi North 5.8 mph - N/A   Overcast
12:00 PM 53.6 °F 50.0 °F 88% 30.01 in 10.0 mi East 4.6 mph - N/A   Overcast
12:34 PM 51.8 °F - N/A% - 20.0 mi East 3.5 mph - N/A   Mostly Cloudy
1:00 PM 53.6 °F 50.0 °F 88% 29.99 in 20.0 mi East 2.3 mph - N/A   Mostly Cloudy
2:00 PM 53.6 °F 50.0 °F 88% 29.98 in 20.0 mi Calm Calm - N/A   Mostly Cloudy
3:00 PM 55.4 °F 50.0 °F 82% 29.97 in 20.0 mi SSE 2.3 mph - N/A   Overcast
4:00 PM 53.6 °F 50.0 °F 88% 29.96 in 30.0 mi WNW 2.3 mph - N/A   Overcast
5:00 PM 53 °F 50 °F 84% 29.95 in 19 mi Calm Calm - - Rain Light Rain
5:00 PM 53.6 °F 50.0 °F 88% 29.95 in 20.0 mi Calm Calm - N/A Rain Light Rain
6:00 PM 51.8 °F 50.0 °F 94% 29.94 in 5.0 mi North 3.5 mph - N/A Rain Light Rain
7:00 PM 51.8 °F 50.0 °F 94% 29.95 in 20.0 mi Calm Calm - N/A   Overcast
8:00 PM 51.8 °F 50.0 °F 94% 29.93 in 20.0 mi NNE 2.3 mph - N/A Rain Light Rain
8:18 PM 50.0 °F - N/A% - 20.0 mi ENE 2.3 mph - N/A   Overcast
8:39 PM 51.8 °F - N/A% - 20.0 mi NNE 3.5 mph - N/A Rain Light Rain
9:00 PM 51.8 °F 50.0 °F 94% 29.92 in 20.0 mi ENE 2.3 mph - N/A   Overcast
9:35 PM 53.6 °F - N/A% - 20.0 mi SE 15.0 mph - N/A   Overcast
10:00 PM 51.8 °F 48.2 °F 88% 29.92 in 30.0 mi SE 9.2 mph 19.6 mph N/A   Overcast
11:00 PM 52 °F 48 °F 82% 29.92 in 28 mi SSE 6.9 mph - -   Partly Cloudy
11:00 PM 51.8 °F 48.2 °F 88% 29.92 in 30.0 mi SSE 6.9 mph - N/A   Overcast
11:11 PM 51.8 °F - N/A% - 30.0 mi SE 4.6 mph - N/A Rain Light Rain
11:37 PM 51.8 °F - N/A% - 30.0 mi SE 8.1 mph - N/A   Overcast
11:53 PM 51.8 °F - N/A% - 30.0 mi SSE 8.1 mph - N/A Rain Light Rain